Location: Ferintosh
(52.7647°N, 112.9692°W)
Time: 14:30:50
(UTC+00:00)

Transit 2A - Pass Details

Date: 19 May 2024
Orbit: 593 x 959 km, 66.7° (Epoch: 14 June)

Event Time Altitude Azimuth Distance (km) Brightness Sun altitude
Rises 16:52:53 0° 312° (NW) 3,411 8.9 45.6°
Reaches altitude 10° 16:56:01 10° 294° (WNW) 2,534 8.4 46.0°
Maximum altitude 16:59:55 19° 253° (WSW) 2,051 8.1 46.5°
Drops below altitude 10° 17:03:58 10° 212° (SSW) 2,642 8.9 47.0°
Sets 17:07:19 0° 195° (SSW) 3,611 9.7 47.4°
